#timestamp,LO_Frequency,Hit,StdDev 
1506067215.5,286046995.0,N
1506067235.3,286046995.9,N
1506067255.2,286046990.0,Y
1506067275.9,286046990.6,P
1506067295.7,286046988.6,P
1506067315.5,286046988.9,N
1506067335.4,286046983.3,Y
1506067355.2,286046997.7,P
1506067375.0,286046996.9,N
1506067376.0,286046996.9,N
1506067395.8,286046998.6,N
1506067415.6,286046997.7,N
1506067435.4,286046995.4,N
1506067455.3,286047000.7,N
1506067475.1,286046998.9,N
1506067495.8,286046996.8,N
1506067515.7,286046997.3,N
1506067535.5,286046996.9,N
1506067555.3,286046995.2,N
1506067575.2,286047000.8,N
1506067595.9,286046993.4,N
1506067615.7,286046997.8,N
1506067635.6,286046995.9,N
1506067655.4,286046999.1,N
1506067675.2,286047002.5,N
1506067695.1,286047000.8,N
1506067696.0,286047000.8,N
1506067715.8,286047004.4,N
1506067735.6,286046998.4,N
1506067755.5,286046995.5,N
1506067775.3,286046993.6,N
1506067795.1,286046997.2,N
1506067815.8,286046996.9,N
1506067835.7,286047002.7,N
1506067855.5,286047000.1,N
1506067875.3,286046999.9,N
1506067895.2,286047000.4,N
1506067915.9,286047000.9,N
1506067935.7,286047002.2,N
1506067955.6,286047000.4,N
1506067975.4,286047001.2,N
1506067995.2,286047003.0,N
1506068015.1,286047001.6,N
1506068016.0,286047001.6,N
1506068035.8,286046999.8,N
1506068055.6,286047001.8,N
1506068075.5,286047004.9,N
1506068095.3,286047005.3,N
1506068115.1,286047004.4,N
1506068135.8,286047004.4,N
1506068155.7,286047002.7,N
1506068175.5,286047004.2,N
1506068195.3,286046998.5,N
1506068215.2,286046998.1,N
1506068235.9,286046996.4,N
1506068255.7,286046991.8,N
1506068275.6,286046994.9,N
1506068295.4,286046998.3,N
1506068315.2,286046998.9,N
1506068335.1,286047002.3,N
1506068336.0,286047002.3,N
1506068355.8,286047001.1,N
1506068375.6,286047000.8,N
1506068395.5,286047000.3,N
1506068415.3,286047005.8,N
1506068435.1,286047000.1,N
1506068455.8,286046995.0,N
1506068475.7,286046995.9,N
1506068495.5,286046999.3,N
1506068515.3,286046998.3,N
1506068535.2,286046998.5,N
1506068555.9,286046999.3,N
1506068575.7,286046998.4,N
1506068595.6,286046999.0,N
1506068615.4,286047002.3,N
1506068635.2,286047001.1,N
1506068655.1,286046999.7,N
1506068656.0,286046999.7,N
1506068675.8,286047005.5,N
1506068695.6,286047005.3,N
1506068715.5,286047002.1,N
1506068735.3,286046996.9,N
1506068755.1,286046995.0,N
1506068775.9,286046995.5,N
1506068795.7,286046992.4,N
1506068815.5,286046991.4,N
1506068835.3,286046991.1,N
1506068855.2,286046992.1,N
1506068875.0,286046992.9,N
1506068875.9,286046992.9,N
1506068895.7,286046991.5,N
1506068915.6,286046986.8,Y
1506068935.4,286046985.2,P
1506068955.2,286046987.9,N
1506068975.1,286046987.0,N
1506068976.0,286046987.0,N
1506068995.8,286046989.5,N
1506069015.6,286046990.5,N
1506069035.5,286046992.8,N
1506069055.3,286046989.9,N
1506069075.2,286046985.2,Y
1506069095.9,286046997.1,P
1506069115.7,286047000.2,N
1506069135.5,286047002.3,N
1506069155.4,286047002.4,N
1506069175.2,286047002.9,N
1506069195.0,286047005.3,N
1506069195.9,286047005.3,N
1506069215.8,286047005.1,N
1506069235.6,286047004.8,N
1506069255.4,286047005.5,N
1506069275.3,286047003.9,N
1506069295.1,286047006.1,N
1506069315.8,286047006.3,N
1506069335.7,286047003.2,N
1506069355.5,286047004.3,N
1506069375.3,286047002.3,N
1506069395.2,286047001.3,N
1506069415.9,286047005.6,N
1506069435.7,286047006.0,N
1506069455.5,286047002.3,N
1506069475.4,286047002.7,N
1506069495.2,286047003.9,N
1506069515.0,286047000.4,N
1506069515.9,286047000.4,N
1506069535.8,286047000.5,N
1506069555.6,286046998.2,N
1506069575.4,286046997.1,N
1506069595.3,286046998.4,N
1506069615.1,286046998.5,N
1506069635.8,286047001.4,N
1506069655.7,286046998.5,N
1506069675.5,286047002.5,N
1506069695.3,286047001.8,N
1506069715.2,286046998.5,N
1506069735.9,286046998.2,N
1506069755.7,286047001.0,N
1506069775.6,286047001.2,N
1506069795.4,286047000.7,N
1506069815.2,286047004.4,N
1506069835.0,286047004.9,N
1506069836.0,286047004.9,N
1506069855.8,286047006.6,N
1506069875.6,286047011.8,Y
1506069895.5,286047010.4,P
1506069915.3,286047009.1,N
1506069935.1,286047009.0,N
1506069955.8,286047006.1,N
1506069975.7,286047006.4,N
1506069995.5,286047007.7,N
1506070015.3,286047008.4,Y
1506070035.2,286047001.4,P
1506070055.0,286047001.1,N
1506070055.9,286047001.1,N
1506070075.7,286047000.6,N
1506070095.6,286047000.2,N
1506070115.4,286047004.1,N
1506070135.2,286047001.7,N
1506070155.1,286047002.4,N
1506070156.0,286047002.4,N
1506070175.8,286046999.5,N
1506070195.6,286046998.5,N
1506070215.5,286046999.3,N
1506070235.3,286047000.8,N
1506070255.1,286046998.1,N
1506070275.9,286046995.5,N
1506070295.7,286046993.5,N
1506070315.5,286046995.5,N
1506070335.3,286046999.1,N
1506070355.2,286047002.7,N
1506070375.0,286047000.2,N
1506070375.9,286047000.2,N
1506070395.7,286047004.1,N
1506070415.6,286047002.2,N
1506070435.4,286046996.9,N
1506070455.2,286046995.4,N
1506070475.1,286046995.1,N
1506070476.0,286046995.1,N
1506070495.8,286046994.2,N
1506070515.6,286046993.8,N
1506070535.5,286046991.8,N
1506070555.3,286046996.3,N
1506070575.1,286046995.1,N
1506070595.9,286046991.7,N
1506070615.7,286046988.8,Y
1506070635.5,286046988.6,P
1506070655.4,286046990.6,N
1506070675.2,286046995.6,N
1506070695.0,286046997.9,N
1506070695.9,286046997.9,N
1506070715.8,286046996.5,N
1506070735.6,286046996.4,N
1506070755.4,286046993.5,N
1506070775.2,286046993.8,N
1506070795.1,286046989.1,Y
1506070796.0,286046989.1,P
